Powrót do katalogu

TURKSAT 2A

AktywnyŁącznośćGEO
NORAD 26666·PAYLOAD·🇹🇷 Turkey

Wystrzelony Jan 10, 2001 z Guiana Space Centre

Loading…

TLE

ŚwieżeSource: Space-Track

Epoka: Sep 14, 2026, 13:58 UTC

1 26666U 01002A   26257.58212104 -.00000070  00000-0  00000-0 0  9992
2 26666   9.1738  60.5655 0006119 329.4573 208.7458  0.98207844 93168

Śledź TURKSAT 2A w czasie rzeczywistym z AllMySat

Download on the App Store